Terug naar catalogus

ARIANE 2 DEB

ActiefGTO
NORAD 27039·DEBRIS·🇫🇷 France

Gelanceerd Jan 27, 1989 vanaf Guiana Space Centre

Loading…

TLE

VerouderendSource: Space-Track

Epoch: Sep 14, 2026, 19:04 UTC

1 27039U 89006U   26257.79451435 -.00000057  00000-0  17417-3 0  9990
2 27039   7.9240 119.6237 7159819 348.1344 252.7655  2.26242962208187

Volg ARIANE 2 DEB in realtime met AllMySat

Download on the App Store